Burns Flat, OK

4:47 PM CDT on August 24, 2016 (GMT -0500)
Clinton-Sherman

Weather History for KCSM - December, 2013

Change the Weather History Date:

Wednesday, December 18, 2013

  Actual Average Record
Temperature  
Mean Temperature 50 °F -  
Max Temperature 66 °F 47 °F 73 °F (2001)
Min Temperature 33 °F 27 °F 10 °F (1996)
Degree Days  
Heating Degree Days 16    
Moisture  
Dew Point 33 °F    
Average Humidity 56    
Maximum Humidity 78    
Minimum Humidity 30    
Precipitation  
Precipitation 0.00 in - - ()
Sea Level Pressure  
Sea Level Pressure 30.01 in    
Wind  
Wind Speed 13 mph (South)    
Max Wind Speed 28 mph    
Max Gust Speed 34 mph    
Visibility 10 miles    
Events      
Averages and records for this station are not official NWS values.
T = Trace of Precipitation, MM = Missing Value Source: NWS Daily Summary

Daily Weather History Graph

Daily Weather History Graph

Search for Another Location

Airport or City:

Trip Planner

Search our weather history database for the weather conditions in past years. The results will help you decide how hot, cold, wet, or windy it might be!

Date:

Astronomy

Dec. 18, 2013 Rise Set
Actual Time 7:40 AM CST 5:26 PM CST
Civil Twilight 7:12 AM CST 5:55 PM CST
Nautical Twilight 6:40 AM CST 6:27 PM CST
Astronomical Twilight 6:09 AM CST 6:58 PM CST
Moon 6:57 PM CST (12/18) 8:23 AM CST (12/18)
Length of Visible Light 10h 43m
Length of Day
9h 46m
Full, 98% of the Moon is Illuminated
Dec 18
Full
Dec 25
Last Quarter
Jan 1
New
Jan 7
First Quarter
Jan 15
Full

Hourly Weather History & Observations

Time (CST) Temp. Windchill Dew Point Humidity Pressure Visibility Wind Dir Wind Speed Gust Speed Precip Events Conditions
12:53 AM 37.9 °F 32.7 °F 26.1 °F 62% 30.24 in 10.0 mi SSE 6.9 mph - N/A   Clear
1:53 AM 34.0 °F 27.2 °F 26.1 °F 73% 30.22 in 10.0 mi South 8.1 mph - N/A   Clear
2:53 AM 39.9 °F 32.5 °F 28.0 °F 63% 30.19 in 10.0 mi South 12.7 mph - N/A   Clear
3:53 AM 37.0 °F 30.4 °F 28.0 °F 70% 30.18 in 10.0 mi South 9.2 mph - N/A   Clear
4:53 AM 36.0 °F 29.6 °F 27.0 °F 70% 30.17 in 10.0 mi South 8.1 mph - N/A   Clear
5:53 AM 33.1 °F 26.9 °F 26.1 °F 75% 30.17 in 10.0 mi South 6.9 mph - N/A   Clear
6:53 AM 36.0 °F 27.5 °F 28.0 °F 73% 30.15 in 10.0 mi South 12.7 mph - N/A   Clear
7:53 AM 35.1 °F 27.9 °F 28.9 °F 78% 30.14 in 10.0 mi South 9.2 mph - N/A   Clear
8:53 AM 39.9 °F 32.9 °F 30.0 °F 68% 30.14 in 10.0 mi South 11.5 mph - N/A   Clear
9:53 AM 46.0 °F 39.9 °F 32.0 °F 58% 30.13 in 10.0 mi SSW 13.8 mph - N/A   Clear
10:53 AM 52.0 °F - 33.1 °F 49% 30.10 in 10.0 mi SSW 13.8 mph - N/A   Clear
11:53 AM 55.9 °F - 35.1 °F 45% 30.06 in 10.0 mi South 16.1 mph - N/A   Clear
12:53 PM 60.1 °F - 35.1 °F 39% 29.99 in 10.0 mi South 18.4 mph - N/A   Clear
1:53 PM 61.0 °F - 35.1 °F 38% 29.95 in 10.0 mi South 24.2 mph 34.5 mph N/A   Clear
2:53 PM 64.0 °F - 35.1 °F 34% 29.90 in 10.0 mi South 20.7 mph 32.2 mph N/A   Clear
3:53 PM 66.0 °F - 34.0 °F 30% 29.87 in 10.0 mi South 27.6 mph 32.2 mph N/A   Clear
4:53 PM 62.1 °F - 35.1 °F 37% 29.87 in 10.0 mi South 23.0 mph 32.2 mph N/A   Clear
5:53 PM 57.9 °F - 36.0 °F 44% 29.86 in 10.0 mi South 23.0 mph - N/A   Clear
6:53 PM 55.9 °F - 36.0 °F 47% 29.85 in 10.0 mi South 19.6 mph - N/A   Clear
7:53 PM 57.0 °F - 37.0 °F 47% 29.85 in 10.0 mi South 23.0 mph - N/A   Clear
8:53 PM 55.0 °F - 39.0 °F 55% 29.85 in 10.0 mi South 21.9 mph - N/A   Clear
9:53 PM 54.0 °F - 39.9 °F 59% 29.83 in 10.0 mi South 21.9 mph - N/A   Clear
10:53 PM 53.1 °F - 39.9 °F 61% 29.82 in 10.0 mi South 19.6 mph - N/A   Clear
11:53 PM 52.0 °F - 41.0 °F 66% 29.79 in 10.0 mi South 21.9 mph - N/A   Clear